,,PressureMeas_1m,,PRMeasQMR101_1,,RHStat155_1m_1,,SRMeasQMS101R_1m,,TAStat155_1m_1,,GenWind_1,,GenWind_1,
2019-07-31, 00:00:06,VALID,919.169,VALID,0.0,VALID,99.445,VALID,0.022,VALID,20.621,VALID,108.0,VALID,0.0,
2019-07-31, 00:01:06,VALID,919.159,VALID,0.0,VALID,99.442,VALID,0.034,VALID,20.599,VALID,107.0,VALID,0.0,
2019-07-31, 00:02:06,VALID,919.15,VALID,0.0,VALID,99.443,VALID,0.016,VALID,20.576,VALID,120.0,VALID,0.0,
2019-07-31, 00:03:06,VALID,919.146,VALID,0.0,VALID,99.466,VALID,0.015,VALID,20.594,VALID,128.0,VALID,0.0,
2019-07-31, 00:04:06,VALID,919.131,VALID,0.0,VALID,99.465,VALID,0.008,VALID,20.636,VALID,130.0,VALID,0.0,
2019-07-31, 00:05:06,VALID,919.119,VALID,0.0,VALID,99.502,VALID,0.011,VALID,20.663,VALID,130.0,VALID,0.0,
2019-07-31, 00:06:06,VALID,919.112,VALID,0.0,VALID,99.481,VALID,-0.009,VALID,20.629,VALID,125.0,VALID,0.0,
2019-07-31, 00:07:06,VALID,919.107,VALID,0.0,VALID,99.485,VALID,-0.01,VALID,20.613,VALID,127.0,VALID,0.0,
2019-07-31, 00:08:06,VALID,919.099,VALID,0.0,VALID,99.481,VALID,-0.001,VALID,20.594,VALID,123.0,VALID,0.0,
2019-07-31, 00:09:06,VALID,919.092,VALID,0.0,VALID,99.474,VALID,-0.001,VALID,20.586,VALID,118.0,VALID,0.0,
2019-07-31, 00:10:06,VALID,919.073,VALID,0.0,VALID,99.49,VALID,0.001,VALID,20.599,VALID,112.0,VALID,0.0,
2019-07-31, 00:11:06,VALID,919.054,VALID,0.0,VALID,99.498,VALID,-0.005,VALID,20.609,VALID,115.0,VALID,0.0,
2019-07-31, 00:12:06,VALID,919.023,VALID,0.0,VALID,99.478,VALID,-0.001,VALID,20.586,VALID,113.0,VALID,0.0,
2019-07-31, 00:13:06,VALID,918.996,VALID,0.0,VALID,99.453,VALID,-0.002,VALID,20.553,VALID,117.0,VALID,0.0,
2019-07-31, 00:14:06,VALID,918.982,VALID,0.0,VALID,99.439,VALID,0.002,VALID,20.534,VALID,121.0,VALID,0.0,
2019-07-31, 00:15:06,VALID,918.948,VALID,0.0,VALID,99.456,VALID,-0.013,VALID,20.514,VALID,122.0,VALID,0.0,
2019-07-31, 00:16:06,VALID,918.94,VALID,0.0,VALID,99.427,VALID,-0.014,VALID,20.459,VALID,120.0,VALID,0.0,
2019-07-31, 00:17:06,VALID,918.918,VALID,0.0,VALID,99.454,VALID,-0.0,VALID,20.464,VALID,125.0,VALID,0.0,
2019-07-31, 00:18:06,VALID,918.906,VALID,0.0,VALID,99.461,VALID,-0.001,VALID,20.477,INVALID,360.0,VALID,0.0,
2019-07-31, 00:19:06,VALID,918.895,VALID,0.0,VALID,99.453,VALID,0.016,VALID,20.49,VALID,135.0,VALID,0.0,
2019-07-31, 00:20:06,VALID,918.864,VALID,0.0,VALID,99.464,VALID,0.012,VALID,20.494,VALID,122.0,VALID,0.0,
2019-07-31, 00:21:06,VALID,918.866,VALID,0.0,VALID,99.445,VALID,0.01,VALID,20.481,VALID,127.0,VALID,0.0,
2019-07-31, 00:22:06,VALID,918.875,VALID,0.0,VALID,99.45,VALID,0.006,VALID,20.486,VALID,130.0,VALID,0.0,
2019-07-31, 00:23:06,VALID,918.88,VALID,0.0,VALID,99.451,VALID,0.012,VALID,20.495,VALID,125.0,VALID,0.0,
2019-07-31, 00:24:06,VALID,918.882,VALID,0.0,VALID,99.429,VALID,0.003,VALID,20.472,VALID,116.0,VALID,0.0,
2019-07-31, 00:25:06,VALID,918.881,VALID,0.0,VALID,99.431,VALID,0.012,VALID,20.46,VALID,124.0,VALID,0.0,
2019-07-31, 00:26:06,VALID,918.861,VALID,0.0,VALID,99.458,VALID,0.014,VALID,20.461,VALID,112.0,VALID,0.0,
2019-07-31, 00:27:06,VALID,918.846,VALID,0.0,VALID,99.438,VALID,0.034,VALID,20.457,VALID,125.0,VALID,0.0,
2019-07-31, 00:28:06,VALID,918.81,VALID,0.0,VALID,99.447,VALID,0.01,VALID,20.475,VALID,129.0,VALID,0.0,
2019-07-31, 00:29:06,VALID,918.788,VALID,0.0,VALID,99.424,VALID,0.011,VALID,20.449,VALID,120.0,VALID,0.0,
2019-07-31, 00:30:06,VALID,918.768,VALID,0.0,VALID,99.421,VALID,0.007,VALID,20.424,VALID,125.0,VALID,0.0,
2019-07-31, 00:31:06,VALID,918.76,VALID,0.0,VALID,99.445,VALID,0.012,VALID,20.417,VALID,110.0,VALID,0.0,
2019-07-31, 00:32:06,VALID,918.765,VALID,0.0,VALID,99.426,VALID,0.021,VALID,20.399,VALID,98.0,VALID,0.0,
2019-07-31, 00:33:06,VALID,918.728,VALID,0.0,VALID,99.416,VALID,0.033,VALID,20.378,VALID,125.0,VALID,0.0,
2019-07-31, 00:34:06,VALID,918.698,VALID,0.0,VALID,99.395,VALID,-0.026,VALID,20.354,VALID,119.0,VALID,0.0,
2019-07-31, 00:35:06,VALID,918.706,VALID,0.0,VALID,99.385,VALID,-0.031,VALID,20.337,VALID,122.0,VALID,0.0,
2019-07-31, 00:36:06,VALID,918.689,VALID,0.0,VALID,99.376,VALID,-0.021,VALID,20.33,VALID,129.0,VALID,0.0,
2019-07-31, 00:37:06,VALID,918.694,VALID,0.0,VALID,99.36,VALID,-0.019,VALID,20.321,VALID,131.0,VALID,0.0,
2019-07-31, 00:38:06,VALID,918.683,VALID,0.0,VALID,99.376,VALID,-0.018,VALID,20.331,VALID,130.0,VALID,0.0,
2019-07-31, 00:39:06,VALID,918.697,VALID,0.0,VALID,99.363,VALID,-0.034,VALID,20.339,VALID,119.0,VALID,0.0,
2019-07-31, 00:40:06,VALID,918.699,VALID,0.0,VALID,99.319,VALID,-0.011,VALID,20.323,VALID,114.0,VALID,0.0,
2019-07-31, 00:41:06,VALID,918.71,VALID,0.0,VALID,99.326,VALID,-0.008,VALID,20.338,VALID,133.0,VALID,0.0,
2019-07-31, 00:42:06,VALID,918.721,VALID,0.0,VALID,99.313,VALID,-0.015,VALID,20.382,INVALID,360.0,VALID,0.0,
2019-07-31, 00:43:06,VALID,918.723,VALID,0.0,VALID,99.287,VALID,-0.024,VALID,20.383,VALID,136.0,VALID,0.0,
2019-07-31, 00:44:06,VALID,918.706,VALID,0.0,VALID,99.266,VALID,-0.024,VALID,20.388,INVALID,360.0,VALID,0.0,
2019-07-31, 00:45:06,VALID,918.707,VALID,0.0,VALID,99.276,VALID,-0.016,VALID,20.39,VALID,102.0,VALID,0.0,
2019-07-31, 00:46:06,VALID,918.673,VALID,0.0,VALID,99.209,VALID,-0.036,VALID,20.347,VALID,116.0,VALID,0.0,
2019-07-31, 00:47:06,VALID,918.67,VALID,0.0,VALID,99.223,VALID,-0.007,VALID,20.336,VALID,113.0,VALID,0.0,
2019-07-31, 00:48:06,VALID,918.654,VALID,0.0,VALID,99.214,VALID,-0.009,VALID,20.283,VALID,107.0,VALID,0.0,
2019-07-31, 00:49:06,VALID,918.641,VALID,0.0,VALID,99.209,VALID,0.027,VALID,20.258,VALID,108.0,VALID,0.0,
2019-07-31, 00:50:06,VALID,918.608,VALID,0.0,VALID,99.256,VALID,0.018,VALID,20.286,VALID,117.0,VALID,0.0,
2019-07-31, 00:51:06,VALID,918.612,VALID,0.0,VALID,99.311,VALID,0.027,VALID,20.307,VALID,113.0,VALID,0.0,
2019-07-31, 00:52:06,VALID,918.598,VALID,0.0,VALID,99.317,VALID,0.023,VALID,20.31,VALID,111.0,VALID,0.0,
2019-07-31, 00:53:06,VALID,918.584,VALID,0.0,VALID,99.337,VALID,0.04,VALID,20.297,VALID,99.0,VALID,0.0,
2019-07-31, 00:54:06,VALID,918.586,VALID,0.0,VALID,99.351,VALID,0.026,VALID,20.265,VALID,99.0,VALID,0.0,
2019-07-31, 00:55:06,VALID,918.57,VALID,0.0,VALID,99.35,VALID,0.042,VALID,20.221,VALID,88.0,VALID,0.0,
2019-07-31, 00:56:06,VALID,918.568,VALID,0.0,VALID,99.311,VALID,0.024,VALID,20.164,VALID,81.0,VALID,0.0,
2019-07-31, 00:57:06,VALID,918.547,VALID,0.0,VALID,99.305,VALID,0.02,VALID,20.12,INVALID,360.0,VALID,0.0,
2019-07-31, 00:58:06,VALID,918.538,VALID,0.0,VALID,99.21,VALID,0.023,VALID,19.957,INVALID,360.0,VALID,0.0,
2019-07-31, 00:59:06,VALID,918.536,VALID,0.0,VALID,99.148,VALID,0.016,VALID,19.89,INVALID,360.0,VALID,0.0,
2019-07-31, 01:00:06,VALID,918.514,VALID,0.0,VALID,99.116,VALID,0.024,VALID,19.873,INVALID,360.0,VALID,0.0,
2019-07-31, 01:01:06,VALID,918.509,VALID,0.0,VALID,99.114,VALID,0.02,VALID,19.849,INVALID,360.0,VALID,0.0,
2019-07-31, 01:02:06,VALID,918.487,VALID,0.0,VALID,99.137,VALID,0.017,VALID,19.84,INVALID,360.0,VALID,0.0,
2019-07-31, 01:03:06,VALID,918.48,VALID,0.0,VALID,99.158,VALID,0.012,VALID,19.828,INVALID,360.0,VALID,0.0,
2019-07-31, 01:04:06,VALID,918.479,VALID,0.0,VALID,99.137,VALID,-0.007,VALID,19.761,INVALID,360.0,VALID,0.0,
2019-07-31, 01:05:06,VALID,918.474,VALID,0.0,VALID,99.14,VALID,0.003,VALID,19.791,INVALID,360.0,VALID,0.0,
2019-07-31, 01:06:06,VALID,918.48,VALID,0.0,VALID,99.233,VALID,-0.003,VALID,19.852,VALID,80.0,VALID,0.0,
2019-07-31, 01:07:06,VALID,918.474,VALID,0.0,VALID,99.253,VALID,0.01,VALID,19.874,VALID,85.0,VALID,0.0,
2019-07-31, 01:08:06,VALID,918.444,VALID,0.0,VALID,99.266,VALID,0.018,VALID,19.829,VALID,83.0,VALID,0.0,
2019-07-31, 01:09:06,VALID,918.412,VALID,0.0,VALID,99.237,VALID,0.023,VALID,19.763,VALID,82.0,VALID,0.0,
2019-07-31, 01:10:06,VALID,918.429,VALID,0.0,VALID,99.238,VALID,0.018,VALID,19.716,VALID,82.0,VALID,0.0,
2019-07-31, 01:11:06,VALID,918.397,VALID,0.0,VALID,99.218,VALID,0.026,VALID,19.701,VALID,86.0,VALID,0.0,
2019-07-31, 01:12:06,VALID,918.385,VALID,0.0,VALID,99.26,VALID,0.023,VALID,19.726,VALID,108.0,VALID,0.0,
2019-07-31, 01:13:06,VALID,918.358,VALID,0.0,VALID,99.298,VALID,0.003,VALID,19.762,VALID,106.0,VALID,0.0,
2019-07-31, 01:14:06,VALID,918.361,VALID,0.0,VALID,99.374,VALID,0.017,VALID,19.834,VALID,118.0,VALID,0.0,
2019-07-31, 01:15:06,VALID,918.356,VALID,0.0,VALID,99.386,VALID,0.015,VALID,19.85,VALID,123.0,VALID,0.0,
2019-07-31, 01:16:06,VALID,918.358,VALID,0.0,VALID,99.383,VALID,0.025,VALID,19.829,VALID,123.0,VALID,0.0,
2019-07-31, 01:17:06,VALID,918.353,VALID,0.0,VALID,99.416,VALID,0.026,VALID,19.82,VALID,121.0,VALID,0.0,
2019-07-31, 01:18:06,VALID,918.339,VALID,0.0,VALID,99.444,VALID,-0.004,VALID,19.852,VALID,108.0,VALID,0.0,
2019-07-31, 01:19:06,VALID,918.332,VALID,0.0,VALID,99.444,VALID,0.013,VALID,19.875,VALID,120.0,VALID,0.0,
2019-07-31, 01:20:06,VALID,918.344,VALID,0.0,VALID,99.501,VALID,0.031,VALID,19.943,VALID,119.0,VALID,0.0,
2019-07-31, 01:21:06,VALID,918.33,VALID,0.0,VALID,99.473,VALID,0.029,VALID,19.97,VALID,118.0,VALID,0.0,
2019-07-31, 01:22:06,VALID,918.31,VALID,0.0,VALID,99.526,VALID,0.029,VALID,20.011,VALID,117.0,VALID,0.0,
2019-07-31, 01:23:06,VALID,918.307,VALID,0.0,VALID,99.495,VALID,0.023,VALID,19.977,VALID,120.0,VALID,0.0,
2019-07-31, 01:24:06,VALID,918.302,VALID,0.0,VALID,99.498,VALID,0.026,VALID,20.015,VALID,115.0,VALID,0.0,
2019-07-31, 01:25:06,VALID,918.299,VALID,0.0,VALID,99.525,VALID,0.043,VALID,20.023,VALID,103.0,VALID,0.0,
2019-07-31, 01:26:06,VALID,918.297,VALID,0.0,VALID,99.535,VALID,0.041,VALID,20.026,VALID,103.0,VALID,0.0,
2019-07-31, 01:27:07,VALID,918.305,VALID,0.0,VALID,99.514,VALID,0.034,VALID,20.015,VALID,102.0,VALID,0.0,
2019-07-31, 01:28:07,VALID,918.29,VALID,0.0,VALID,99.542,VALID,0.035,VALID,20.053,VALID,102.0,VALID,0.0,
2019-07-31, 01:29:07,VALID,918.292,VALID,0.0,VALID,99.565,VALID,0.041,VALID,20.085,VALID,103.0,VALID,0.0,
2019-07-31, 01:30:07,VALID,918.282,VALID,0.0,VALID,99.549,VALID,0.038,VALID,20.087,VALID,103.0,VALID,0.0,
2019-07-31, 01:31:07,VALID,918.286,VALID,0.0,VALID,99.571,VALID,0.035,VALID,20.136,VALID,103.0,VALID,0.0,
2019-07-31, 01:32:07,VALID,918.275,VALID,0.0,VALID,99.583,VALID,0.013,VALID,20.147,VALID,103.0,VALID,0.0,
2019-07-31, 01:33:07,VALID,918.274,VALID,0.0,VALID,99.561,VALID,0.015,VALID,20.089,VALID,103.0,VALID,0.0,
2019-07-31, 01:34:07,VALID,918.27,VALID,0.0,VALID,99.554,VALID,-0.004,VALID,20.078,VALID,103.0,VALID,0.0,
2019-07-31, 01:35:07,VALID,918.243,VALID,0.0,VALID,99.557,VALID,-0.003,VALID,20.026,VALID,99.0,VALID,0.0,
2019-07-31, 01:36:07,VALID,918.224,VALID,0.0,VALID,99.555,VALID,-0.003,VALID,19.96,VALID,93.0,VALID,0.0,
2019-07-31, 01:37:07,VALID,918.206,VALID,0.0,VALID,99.519,VALID,-0.011,VALID,19.913,VALID,93.0,VALID,0.0,
2019-07-31, 01:38:07,VALID,918.18,VALID,0.0,VALID,99.529,VALID,-0.013,VALID,19.91,VALID,93.0,VALID,0.0,
2019-07-31, 01:39:07,VALID,918.158,VALID,0.0,VALID,99.544,VALID,-0.017,VALID,19.944,VALID,93.0,VALID,0.0,
2019-07-31, 01:40:07,VALID,918.16,VALID,0.0,VALID,99.545,VALID,-0.015,VALID,19.946,VALID,93.0,VALID,0.0,
2019-07-31, 01:41:07,VALID,918.133,VALID,0.0,VALID,99.546,VALID,-0.0,VALID,19.921,VALID,93.0,VALID,0.0,
2019-07-31, 01:42:07,VALID,918.138,VALID,0.0,VALID,99.561,VALID,-0.031,VALID,19.949,VALID,93.0,VALID,0.0,
2019-07-31, 01:43:07,VALID,918.141,VALID,0.0,VALID,99.562,VALID,-0.013,VALID,19.951,VALID,93.0,VALID,0.0,
2019-07-31, 01:44:07,VALID,918.15,VALID,0.0,VALID,99.546,VALID,0.016,VALID,19.936,VALID,93.0,VALID,0.0,
2019-07-31, 01:45:07,VALID,918.157,VALID,0.0,VALID,99.555,VALID,-0.011,VALID,19.974,VALID,93.0,VALID,0.0,
2019-07-31, 01:46:07,VALID,918.171,VALID,0.0,VALID,99.564,VALID,-0.004,VALID,19.999,VALID,93.0,VALID,0.0,
2019-07-31, 01:47:07,VALID,918.164,VALID,0.0,VALID,99.556,VALID,-0.002,VALID,19.998,VALID,93.0,VALID,0.0,
2019-07-31, 01:48:07,VALID,918.192,VALID,0.0,VALID,99.575,VALID,-0.003,VALID,20.018,VALID,93.0,VALID,0.0,
2019-07-31, 01:49:07,VALID,918.186,VALID,0.0,VALID,99.588,VALID,-0.025,VALID,20.075,VALID,93.0,VALID,0.0,
2019-07-31, 01:50:07,VALID,918.194,VALID,0.0,VALID,99.594,VALID,-0.024,VALID,20.093,VALID,93.0,VALID,0.0,
2019-07-31, 01:51:07,VALID,918.181,VALID,0.0,VALID,99.577,VALID,-0.024,VALID,20.096,VALID,93.0,VALID,0.0,
2019-07-31, 01:52:07,VALID,918.181,VALID,0.0,VALID,99.577,VALID,-0.012,VALID,20.11,VALID,93.0,VALID,0.0,
2019-07-31, 01:53:07,VALID,918.167,VALID,0.0,VALID,99.599,VALID,-0.01,VALID,20.162,VALID,90.0,VALID,0.0,
2019-07-31, 01:54:07,VALID,918.16,VALID,0.0,VALID,99.583,VALID,-0.014,VALID,20.128,VALID,84.0,VALID,0.0,
2019-07-31, 01:55:07,VALID,918.152,VALID,0.0,VALID,99.584,VALID,-0.006,VALID,20.056,VALID,82.0,VALID,0.0,
2019-07-31, 01:56:07,VALID,918.145,VALID,0.0,VALID,99.551,VALID,-0.002,VALID,19.951,VALID,71.0,VALID,0.0,
2019-07-31, 01:57:07,VALID,918.113,VALID,0.0,VALID,99.536,VALID,0.0,VALID,19.883,INVALID,360.0,VALID,0.0,
2019-07-31, 01:58:07,VALID,918.095,VALID,0.0,VALID,99.517,VALID,-0.006,VALID,19.88,INVALID,360.0,VALID,0.0,
2019-07-31, 01:59:07,VALID,918.079,VALID,0.0,VALID,99.549,VALID,-0.01,VALID,19.902,INVALID,360.0,VALID,0.0,
2019-07-31, 02:00:07,VALID,918.053,VALID,0.0,VALID,99.555,VALID,-0.005,VALID,19.911,INVALID,360.0,VALID,0.0,
2019-07-31, 02:01:07,VALID,918.048,VALID,0.0,VALID,99.55,VALID,-0.007,VALID,19.913,INVALID,360.0,VALID,0.0,
2019-07-31, 02:02:07,VALID,918.033,VALID,0.0,VALID,99.545,VALID,0.003,VALID,19.916,INVALID,360.0,VALID,0.0,
2019-07-31, 02:03:07,VALID,918.029,VALID,0.0,VALID,99.559,VALID,-0.004,VALID,19.923,INVALID,360.0,VALID,0.0,
2019-07-31, 02:04:07,VALID,918.046,VALID,0.0,VALID,99.568,VALID,0.007,VALID,19.92,INVALID,360.0,VALID,0.0,
2019-07-31, 02:05:07,VALID,918.031,VALID,0.0,VALID,99.548,VALID,-0.002,VALID,19.911,INVALID,360.0,VALID,0.0,
2019-07-31, 02:06:07,VALID,918.034,VALID,0.0,VALID,99.547,VALID,-0.002,VALID,19.904,INVALID,360.0,VALID,0.0,
2019-07-31, 02:07:07,VALID,918.035,VALID,0.0,VALID,99.539,VALID,-0.014,VALID,19.902,INVALID,360.0,VALID,0.0,
2019-07-31, 02:08:07,VALID,918.014,VALID,0.0,VALID,99.528,VALID,-0.004,VALID,19.899,INVALID,360.0,VALID,0.0,
2019-07-31, 02:09:07,VALID,918.003,VALID,0.0,VALID,99.539,VALID,-0.003,VALID,19.913,INVALID,360.0,VALID,0.0,
2019-07-31, 02:10:07,VALID,918.008,VALID,0.0,VALID,99.532,VALID,-0.002,VALID,19.933,INVALID,360.0,VALID,0.0,
2019-07-31, 02:11:07,VALID,918.001,VALID,0.0,VALID,99.543,VALID,-0.011,VALID,19.93,INVALID,360.0,VALID,0.0,
2019-07-31, 02:12:07,VALID,917.992,VALID,0.0,VALID,99.539,VALID,0.001,VALID,19.924,INVALID,360.0,VALID,0.0,
2019-07-31, 02:13:07,VALID,917.966,VALID,0.0,VALID,99.533,VALID,-0.01,VALID,19.914,INVALID,360.0,VALID,0.0,
2019-07-31, 02:14:07,VALID,917.946,VALID,0.0,VALID,99.55,VALID,0.001,VALID,19.924,INVALID,360.0,VALID,0.0,
2019-07-31, 02:15:07,VALID,917.927,VALID,0.0,VALID,99.54,VALID,0.005,VALID,19.927,INVALID,360.0,VALID,0.0,
2019-07-31, 02:16:07,VALID,917.928,VALID,0.0,VALID,99.523,VALID,-0.005,VALID,19.902,INVALID,360.0,VALID,0.0,
2019-07-31, 02:17:07,VALID,917.904,VALID,0.0,VALID,99.522,VALID,-0.012,VALID,19.888,INVALID,360.0,VALID,0.0,
2019-07-31, 02:18:07,VALID,917.909,VALID,0.0,VALID,99.508,VALID,-0.001,VALID,19.878,INVALID,360.0,VALID,0.0,
2019-07-31, 02:19:07,VALID,917.908,VALID,0.0,VALID,99.505,VALID,0.006,VALID,19.884,INVALID,360.0,VALID,0.0,
2019-07-31, 02:20:07,VALID,917.93,VALID,0.0,VALID,99.501,VALID,0.011,VALID,19.893,INVALID,360.0,VALID,0.0,
2019-07-31, 02:21:07,VALID,917.905,VALID,0.0,VALID,99.512,VALID,0.022,VALID,19.905,INVALID,360.0,VALID,0.0,
2019-07-31, 02:22:07,VALID,917.896,VALID,0.0,VALID,99.503,VALID,0.005,VALID,19.927,INVALID,360.0,VALID,0.0,
2019-07-31, 02:23:07,VALID,917.887,VALID,0.0,VALID,99.533,VALID,0.002,VALID,19.962,INVALID,360.0,VALID,0.0,
2019-07-31, 02:24:07,VALID,917.882,VALID,0.0,VALID,99.529,VALID,-0.007,VALID,19.953,INVALID,360.0,VALID,0.0,
2019-07-31, 02:25:07,VALID,917.868,VALID,0.0,VALID,99.535,VALID,0.012,VALID,19.951,INVALID,360.0,VALID,0.0,
2019-07-31, 02:26:07,VALID,917.862,VALID,0.0,VALID,99.535,VALID,0.017,VALID,19.96,INVALID,360.0,VALID,0.0,
2019-07-31, 02:27:07,VALID,917.857,VALID,0.0,VALID,99.536,VALID,0.012,VALID,19.979,INVALID,360.0,VALID,0.0,
2019-07-31, 02:28:07,VALID,917.882,VALID,0.0,VALID,99.531,VALID,0.023,VALID,19.97,INVALID,360.0,VALID,0.0,
2019-07-31, 02:29:07,VALID,917.875,VALID,0.0,VALID,99.535,VALID,0.001,VALID,19.966,INVALID,360.0,VALID,0.0,
2019-07-31, 02:30:07,VALID,917.886,VALID,0.0,VALID,99.513,VALID,0.013,VALID,19.969,VALID,69.0,VALID,0.0,
2019-07-31, 02:31:07,VALID,917.881,VALID,0.0,VALID,99.507,VALID,0.014,VALID,19.965,VALID,73.0,VALID,0.0,
2019-07-31, 02:32:07,VALID,917.882,VALID,0.0,VALID,99.508,VALID,0.014,VALID,19.951,VALID,72.0,VALID,0.0,
2019-07-31, 02:33:07,VALID,917.88,VALID,0.0,VALID,99.514,VALID,0.008,VALID,19.951,VALID,74.0,VALID,0.0,
2019-07-31, 02:34:07,VALID,917.87,VALID,0.0,VALID,99.508,VALID,0.001,VALID,19.944,VALID,74.0,VALID,0.0,
2019-07-31, 02:35:07,VALID,917.878,VALID,0.0,VALID,99.507,VALID,0.009,VALID,19.947,VALID,73.0,VALID,0.0,
2019-07-31, 02:36:07,VALID,917.85,VALID,0.0,VALID,99.504,VALID,0.009,VALID,19.954,VALID,80.0,VALID,0.0,
2019-07-31, 02:37:07,VALID,917.845,VALID,0.0,VALID,99.502,VALID,0.006,VALID,19.953,VALID,85.0,VALID,0.0,
2019-07-31, 02:38:07,VALID,917.85,VALID,0.0,VALID,99.519,VALID,0.007,VALID,19.968,VALID,91.0,VALID,0.0,
2019-07-31, 02:39:07,VALID,917.837,VALID,0.0,VALID,99.508,VALID,0.004,VALID,19.975,VALID,92.0,VALID,0.0,
2019-07-31, 02:40:07,VALID,917.829,VALID,0.0,VALID,99.514,VALID,0.016,VALID,19.989,VALID,82.0,VALID,0.0,
2019-07-31, 02:41:07,VALID,917.814,VALID,0.0,VALID,99.536,VALID,-0.01,VALID,20.006,VALID,83.0,VALID,0.0,
2019-07-31, 02:42:07,VALID,917.806,VALID,0.0,VALID,99.544,VALID,-0.005,VALID,20.025,VALID,83.0,VALID,0.0,
2019-07-31, 02:43:07,VALID,917.787,VALID,0.0,VALID,99.533,VALID,-0.003,VALID,20.03,VALID,82.0,VALID,0.0,
2019-07-31, 02:44:07,VALID,917.777,VALID,0.0,VALID,99.522,VALID,-0.009,VALID,20.047,VALID,82.0,VALID,0.0,
2019-07-31, 02:45:07,VALID,917.767,VALID,0.0,VALID,99.511,VALID,-0.008,VALID,20.062,VALID,82.0,VALID,0.0,
2019-07-31, 02:46:07,VALID,917.748,VALID,0.0,VALID,99.521,VALID,-0.008,VALID,20.054,VALID,75.0,VALID,0.0,
2019-07-31, 02:47:07,VALID,917.732,VALID,0.0,VALID,99.498,VALID,0.004,VALID,20.026,VALID,79.0,VALID,0.0,
2019-07-31, 02:48:07,VALID,917.744,VALID,0.0,VALID,99.49,VALID,0.0,VALID,20.012,VALID,85.0,VALID,0.0,
2019-07-31, 02:49:07,VALID,917.73,VALID,0.0,VALID,99.458,VALID,-0.002,VALID,20.009,VALID,91.0,VALID,0.0,
2019-07-31, 02:50:07,VALID,917.713,VALID,0.0,VALID,99.454,VALID,-0.001,VALID,20.002,VALID,83.0,VALID,0.0,
2019-07-31, 02:51:07,VALID,917.718,VALID,0.0,VALID,99.452,VALID,-0.005,VALID,20.011,VALID,91.0,VALID,0.0,
2019-07-31, 02:52:07,VALID,917.721,VALID,0.0,VALID,99.453,VALID,-0.014,VALID,20.002,VALID,88.0,VALID,0.0,
2019-07-31, 02:53:07,VALID,917.711,VALID,0.0,VALID,99.437,VALID,0.001,VALID,20.011,VALID,90.0,VALID,0.0,
2019-07-31, 02:54:07,VALID,917.731,VALID,0.0,VALID,99.437,VALID,0.003,VALID,20.016,VALID,93.0,VALID,0.0,
2019-07-31, 02:55:07,VALID,917.746,VALID,0.0,VALID,99.445,VALID,-0.003,VALID,20.026,VALID,104.0,VALID,0.0,
2019-07-31, 02:56:07,VALID,917.759,VALID,0.0,VALID,99.422,VALID,0.019,VALID,20.001,VALID,111.0,VALID,0.0,
2019-07-31, 02:57:07,VALID,917.756,VALID,0.0,VALID,99.416,VALID,0.003,VALID,19.996,VALID,111.0,VALID,0.0,
2019-07-31, 02:58:07,VALID,917.761,VALID,0.0,VALID,99.397,VALID,0.004,VALID,20.014,VALID,118.0,VALID,0.0,
2019-07-31, 02:59:07,VALID,917.784,VALID,0.0,VALID,99.396,VALID,-0.005,VALID,20.017,VALID,108.0,VALID,0.0,
2019-07-31, 03:00:07,VALID,917.766,VALID,0.0,VALID,99.378,VALID,-0.002,VALID,20.012,VALID,95.0,VALID,0.0,
2019-07-31, 03:01:07,VALID,917.749,VALID,0.0,VALID,99.362,VALID,-0.004,VALID,20.011,VALID,109.0,VALID,0.0,
2019-07-31, 03:02:07,VALID,917.736,VALID,0.0,VALID,99.33,VALID,-0.007,VALID,19.988,VALID,109.0,VALID,0.0,
2019-07-31, 03:03:07,VALID,917.716,VALID,0.0,VALID,99.319,VALID,-0.014,VALID,19.989,VALID,111.0,VALID,0.0,
2019-07-31, 03:04:07,VALID,917.689,VALID,0.0,VALID,99.321,VALID,0.004,VALID,19.994,VALID,103.0,VALID,0.0,
2019-07-31, 03:05:07,VALID,917.671,VALID,0.0,VALID,99.296,VALID,-0.013,VALID,19.98,VALID,106.0,VALID,0.0,
2019-07-31, 03:06:07,VALID,917.653,VALID,0.0,VALID,99.29,VALID,-0.033,VALID,19.98,VALID,107.0,VALID,0.0,
2019-07-31, 03:07:07,VALID,917.643,VALID,0.0,VALID,99.28,VALID,-0.017,VALID,19.968,VALID,108.0,VALID,0.0,
2019-07-31, 03:08:07,VALID,917.634,VALID,0.0,VALID,99.244,VALID,-0.003,VALID,19.974,VALID,100.0,VALID,0.0,
2019-07-31, 03:09:07,VALID,917.607,VALID,0.0,VALID,99.192,VALID,-0.015,VALID,19.977,VALID,108.0,VALID,0.0,
2019-07-31, 03:10:07,VALID,917.617,VALID,0.0,VALID,99.138,VALID,-0.005,VALID,19.969,VALID,104.0,VALID,0.0,
2019-07-31, 03:11:07,VALID,917.623,VALID,0.0,VALID,99.076,VALID,0.01,VALID,19.957,VALID,106.0,VALID,0.0,
2019-07-31, 03:12:07,VALID,917.644,VALID,0.0,VALID,99.046,VALID,0.002,VALID,19.962,VALID,110.0,VALID,0.0,
2019-07-31, 03:13:07,VALID,917.634,VALID,0.0,VALID,99.017,VALID,-0.003,VALID,19.969,VALID,113.0,VALID,0.0,
2019-07-31, 03:14:07,VALID,917.645,VALID,0.0,VALID,99.0,VALID,0.004,VALID,19.967,VALID,112.0,VALID,0.0,
2019-07-31, 03:15:07,VALID,917.653,VALID,0.0,VALID,98.922,VALID,-0.001,VALID,19.964,VALID,120.0,VALID,0.0,
2019-07-31, 03:16:07,VALID,917.649,VALID,0.0,VALID,98.927,VALID,0.003,VALID,19.977,VALID,125.0,VALID,0.0,
2019-07-31, 03:17:07,VALID,917.649,VALID,0.0,VALID,98.918,VALID,-0.002,VALID,19.989,VALID,123.0,VALID,0.0,
2019-07-31, 03:18:07,VALID,917.634,VALID,0.0,VALID,98.891,VALID,0.009,VALID,19.998,VALID,131.0,VALID,0.0,
2019-07-31, 03:19:07,VALID,917.628,VALID,0.0,VALID,98.887,VALID,0.001,VALID,20.012,VALID,111.0,VALID,0.0,
2019-07-31, 03:20:07,VALID,917.626,VALID,0.0,VALID,98.863,VALID,0.012,VALID,20.026,VALID,110.0,VALID,0.0,
2019-07-31, 03:21:07,VALID,917.614,VALID,0.0,VALID,98.832,VALID,0.024,VALID,20.037,INVALID,360.0,VALID,0.0,
2019-07-31, 03:22:07,VALID,917.626,VALID,0.0,VALID,98.783,VALID,0.014,VALID,20.042,VALID,132.0,VALID,0.0,
2019-07-31, 03:23:07,VALID,917.63,VALID,0.0,VALID,98.692,VALID,0.005,VALID,20.023,VALID,103.0,VALID,0.0,
2019-07-31, 03:24:07,VALID,917.644,VALID,0.0,VALID,98.62,VALID,0.016,VALID,19.997,VALID,123.0,VALID,0.0,
2019-07-31, 03:25:07,VALID,917.647,VALID,0.0,VALID,98.579,VALID,0.006,VALID,19.967,VALID,115.0,VALID,0.0,
2019-07-31, 03:26:07,VALID,917.653,VALID,0.0,VALID,98.554,VALID,0.015,VALID,19.932,VALID,91.0,VALID,0.0,
2019-07-31, 03:27:07,VALID,917.642,VALID,0.0,VALID,98.505,VALID,0.016,VALID,19.913,VALID,82.0,VALID,0.0,
2019-07-31, 03:28:07,VALID,917.633,VALID,0.0,VALID,98.477,VALID,0.018,VALID,19.897,VALID,76.0,VALID,0.0,
2019-07-31, 03:29:07,VALID,917.642,VALID,0.0,VALID,98.452,VALID,0.013,VALID,19.882,VALID,75.0,VALID,0.0,
2019-07-31, 03:30:07,VALID,917.645,VALID,0.0,VALID,98.473,VALID,0.028,VALID,19.878,VALID,75.0,VALID,0.0,
2019-07-31, 03:31:07,VALID,917.659,VALID,0.0,VALID,98.483,VALID,0.028,VALID,19.877,VALID,80.0,VALID,0.0,
2019-07-31, 03:32:07,VALID,917.653,VALID,0.0,VALID,98.468,VALID,0.021,VALID,19.862,VALID,85.0,VALID,0.0,
2019-07-31, 03:33:07,VALID,917.653,VALID,0.0,VALID,98.471,VALID,0.004,VALID,19.857,VALID,88.0,VALID,0.0,
2019-07-31, 03:34:06,VALID,917.65,VALID,0.0,VALID,98.498,VALID,0.01,VALID,19.869,VALID,88.0,VALID,0.0,
2019-07-31, 03:35:06,VALID,917.65,VALID,0.0,VALID,98.428,VALID,0.013,VALID,19.865,VALID,96.0,VALID,0.0,
2019-07-31, 03:36:06,VALID,917.631,VALID,0.0,VALID,98.402,VALID,0.021,VALID,19.864,VALID,106.0,VALID,0.0,
2019-07-31, 03:37:06,VALID,917.618,VALID,0.0,VALID,98.366,VALID,0.019,VALID,19.862,VALID,106.0,VALID,0.0,
2019-07-31, 03:38:06,VALID,917.636,VALID,0.0,VALID,98.277,VALID,0.009,VALID,19.84,VALID,115.0,VALID,0.0,
2019-07-31, 03:39:06,VALID,917.632,VALID,0.0,VALID,98.187,VALID,0.02,VALID,19.807,VALID,115.0,VALID,0.0,
2019-07-31, 03:40:06,VALID,917.611,VALID,0.0,VALID,98.131,VALID,0.022,VALID,19.785,VALID,117.0,VALID,0.0,
2019-07-31, 03:41:06,VALID,917.596,VALID,0.0,VALID,98.336,VALID,0.009,VALID,19.817,VALID,115.0,VALID,0.0,
2019-07-31, 03:42:06,VALID,917.589,VALID,0.0,VALID,98.387,VALID,0.021,VALID,19.819,VALID,113.0,VALID,0.0,